Time,TemperatureF,DewpointF,PressureIn,WindDirection,WindDirectionDegrees,WindSpeedMPH,WindSpeedGustMPH,Humidity,HourlyPrecipIn,Conditions,Clouds,dailyrainin,SoftwareType,DateUTC
2013-01-27 00:01:00,27.0,15.0,-100.00,SSE,150,13.0,19.0,59,-99.99,,,-99.99,,2013-01-27 06:01:00,
2013-01-27 00:11:00,27.0,15.0,-100.00,SSE,160,11.0,19.0,59,-99.99,,,-99.99,,2013-01-27 06:11:00,
2013-01-27 00:21:00,27.0,15.0,-100.00,SSE,155,13.0,19.0,59,-99.99,,,-99.99,,2013-01-27 06:21:00,
2013-01-27 00:32:00,27.0,15.0,-100.00,SSE,155,11.0,16.0,60,-99.99,,,-99.99,,2013-01-27 06:32:00,
2013-01-27 00:42:00,27.0,15.0,-100.00,SSE,155,11.0,16.0,60,-99.99,,,-99.99,,2013-01-27 06:42:00,
2013-01-27 00:52:00,27.0,15.0,-100.00,SE,145,10.0,16.0,60,-99.99,,,-99.99,,2013-01-27 06:52:00,
2013-01-27 01:01:00,27.0,15.0,-100.00,SE,145,10.0,16.0,60,-99.99,,,-99.99,,2013-01-27 07:01:00,
2013-01-27 01:14:00,27.0,16.0,-100.00,SE,145,10.0,16.0,61,-99.99,,,-99.99,,2013-01-27 07:14:00,
2013-01-27 01:21:00,27.0,16.0,-100.00,SSE,150,11.0,17.0,61,-99.99,,,-99.99,,2013-01-27 07:21:00,
2013-01-27 01:31:00,27.0,16.0,-100.00,SSE,155,11.0,18.0,61,-99.99,,,-99.99,,2013-01-27 07:31:00,
2013-01-27 01:41:00,27.0,16.0,-100.00,SSE,155,11.0,18.0,61,-99.99,,,-99.99,,2013-01-27 07:41:00,
2013-01-27 01:52:00,28.0,16.0,-100.00,SE,140,11.0,19.0,61,-99.99,,,-99.99,,2013-01-27 07:52:00,
2013-01-27 02:01:00,28.0,16.0,-100.00,SE,140,11.0,19.0,61,-99.99,,,-99.99,,2013-01-27 08:01:00,
2013-01-27 02:11:00,27.0,16.0,-100.00,SSE,155,11.0,18.0,62,-99.99,,,-99.99,,2013-01-27 08:11:00,
2013-01-27 02:22:00,27.0,17.0,-100.00,SSE,155,14.0,20.0,63,-99.99,,,-99.99,,2013-01-27 08:22:00,
2013-01-27 02:32:00,27.0,17.0,-100.00,SSE,155,14.0,20.0,63,-99.99,,,-99.99,,2013-01-27 08:32:00,
2013-01-27 02:42:00,27.0,17.0,-100.00,SSE,160,11.0,16.0,63,-99.99,,,-99.99,,2013-01-27 08:42:00,
2013-01-27 02:52:00,28.0,17.0,-100.00,SSE,160,14.0,19.0,63,-99.99,,,-99.99,,2013-01-27 08:52:00,
2013-01-27 03:02:00,28.0,17.0,-100.00,SSE,160,14.0,19.0,63,-99.99,,,-99.99,,2013-01-27 09:02:00,
2013-01-27 03:11:00,28.0,17.0,-100.00,SSE,160,14.0,20.0,63,-99.99,,,-99.99,,2013-01-27 09:11:00,
2013-01-27 03:21:00,28.0,17.0,-100.00,SSE,165,14.0,24.0,63,-99.99,,,-99.99,,2013-01-27 09:21:00,
2013-01-27 03:32:00,28.0,17.0,-100.00,SSE,165,14.0,24.0,63,-99.99,,,-99.99,,2013-01-27 09:32:00,
2013-01-27 03:41:00,28.0,17.0,-100.00,SSE,150,13.0,20.0,63,-99.99,,,-99.99,,2013-01-27 09:41:00,
2013-01-27 03:52:00,28.0,17.0,-100.00,SSE,160,14.0,21.0,63,-99.99,,,-99.99,,2013-01-27 09:52:00,
2013-01-27 04:01:00,28.0,17.0,-100.00,SSE,160,14.0,21.0,63,-99.99,,,-99.99,,2013-01-27 10:01:00,
2013-01-27 04:11:00,28.0,17.0,-100.00,SSE,160,16.0,22.0,63,-99.99,,,-99.99,,2013-01-27 10:11:00,
2013-01-27 04:21:00,28.0,17.0,-100.00,SSE,155,14.0,26.0,63,-99.99,,,-99.99,,2013-01-27 10:21:00,
2013-01-27 04:31:00,28.0,17.0,-100.00,SSE,155,14.0,26.0,63,-99.99,,,-99.99,,2013-01-27 10:31:00,
2013-01-27 04:42:00,28.0,17.0,-100.00,SSE,165,15.0,24.0,64,-99.99,,,-99.99,,2013-01-27 10:42:00,
2013-01-27 04:52:00,28.0,17.0,-100.00,SSE,160,14.0,25.0,64,-99.99,,,-99.99,,2013-01-27 10:52:00,
2013-01-27 05:01:00,28.0,17.0,-100.00,SSE,160,14.0,25.0,64,-99.99,,,-99.99,,2013-01-27 11:01:00,
2013-01-27 05:11:00,28.0,17.0,-100.00,SSE,160,16.0,23.0,64,-99.99,,,-99.99,,2013-01-27 11:11:00,
2013-01-27 05:21:00,28.0,17.0,-100.00,SSE,165,18.0,24.0,64,-99.99,,,-99.99,,2013-01-27 11:21:00,
2013-01-27 05:32:00,28.0,17.0,-100.00,SSE,165,18.0,24.0,64,-99.99,,,-99.99,,2013-01-27 11:32:00,
2013-01-27 05:42:00,28.0,17.0,-100.00,SSE,165,14.0,24.0,64,-99.99,,,-99.99,,2013-01-27 11:42:00,
2013-01-27 05:52:00,28.0,17.0,-100.00,SSE,155,16.0,24.0,64,-99.99,,,-99.99,,2013-01-27 11:52:00,
2013-01-27 06:02:00,28.0,17.0,-100.00,SSE,155,16.0,24.0,64,-99.99,,,-99.99,,2013-01-27 12:02:00,
2013-01-27 06:12:00,28.0,18.0,-100.00,SE,145,14.0,26.0,65,-99.99,,,-99.99,,2013-01-27 12:12:00,
2013-01-27 06:21:00,28.0,18.0,-100.00,SE,145,16.0,24.0,65,-99.99,,,-99.99,,2013-01-27 12:21:00,
2013-01-27 06:32:00,28.0,18.0,-100.00,SSE,150,14.0,22.0,65,-99.99,,,-99.99,,2013-01-27 12:32:00,
2013-01-27 06:42:00,28.0,18.0,-100.00,SSE,150,14.0,22.0,65,-99.99,,,-99.99,,2013-01-27 12:42:00,
2013-01-27 06:52:00,28.0,18.0,-100.00,SE,145,14.0,23.0,65,-99.99,,,-99.99,,2013-01-27 12:52:00,
2013-01-27 07:02:00,28.0,18.0,-100.00,SE,145,14.0,23.0,65,-99.99,,,-99.99,,2013-01-27 13:02:00,
2013-01-27 07:11:00,28.0,18.0,-100.00,SE,145,13.0,20.0,65,-99.99,,,-99.99,,2013-01-27 13:11:00,
2013-01-27 07:22:00,28.0,18.0,-100.00,SSE,160,12.0,19.0,65,-99.99,,,-99.99,,2013-01-27 13:22:00,
2013-01-27 07:32:00,28.0,18.0,-100.00,SSE,160,12.0,19.0,65,-99.99,,,-99.99,,2013-01-27 13:32:00,
2013-01-27 07:42:00,28.0,18.0,-100.00,SE,140,11.0,19.0,65,-99.99,,,-99.99,,2013-01-27 13:42:00,
2013-01-27 07:52:00,28.0,19.0,-100.00,SSE,150,13.0,21.0,66,-99.99,,,-99.99,,2013-01-27 13:52:00,
2013-01-27 08:02:00,28.0,19.0,-100.00,SSE,150,13.0,21.0,66,-99.99,,,-99.99,,2013-01-27 14:02:00,
2013-01-27 08:12:00,29.0,19.0,-100.00,South,175,10.0,24.0,66,-99.99,,,-99.99,,2013-01-27 14:12:00,
2013-01-27 08:22:00,29.0,19.0,-100.00,South,175,14.0,21.0,66,-99.99,,,-99.99,,2013-01-27 14:22:00,
2013-01-27 08:32:00,29.0,19.0,-100.00,South,175,14.0,21.0,66,-99.99,,,-99.99,,2013-01-27 14:32:00,
2013-01-27 08:42:00,29.0,19.0,-100.00,South,175,14.0,21.0,66,-99.99,,,-99.99,,2013-01-27 14:42:00,